Nashua, NH

7:24 AM EDT on October 14, 2019 (GMT -0400)
Boire

Weather History for KASH - May, 2019

Change the Weather History Date:

Sunday, May 12, 2019

  Actual Average Record
Temperature  
Mean Temperature 47 °F -  
Max Temperature 50 °F 67 °F 89 °F (2001)
Min Temperature 44 °F 42 °F 28 °F (1962)
Degree Days  
Heating Degree Days 18    
Moisture  
Dew Point 39 °F    
Average Humidity 76    
Maximum Humidity 100    
Minimum Humidity 48    
Precipitation  
Precipitation 0.01 in - - ()
Sea Level Pressure  
Sea Level Pressure 30.07 in    
Wind  
Wind Speed 2 mph (West)    
Max Wind Speed 6 mph    
Max Gust Speed -    
Visibility 10 miles    
Events Rain    
Averages and records for this station are not official NWS values.
T = Trace of Precipitation, MM = Missing Value Source: NWS Daily Summary

Daily Weather History Graph

Daily Weather History Graph

Search for Another Location

Airport or City:

Astronomy

May. 12, 2019 Rise Set
Actual Time 5:26 AM EDT 7:58 PM EDT
Civil Twilight 4:54 AM EDT 8:30 PM EDT
Nautical Twilight 4:14 AM EDT 9:10 PM EDT
Astronomical Twilight 3:29 AM EDT 9:56 PM EDT
Moon 12:44 PM EDT (5/12) 2:17 AM EDT (5/12)
Length of Visible Light 15h 35m
Length of Day
14h 31m
First Quarter, 57% of the Moon is Illuminated
May 12
First Quarter
May 18
Full
May 26
Last Quarter
Jun 3
New
Jun 10
First Quarter

Hourly Weather History & Observations

Time (EDT) Temp. Windchill Dew Point Humidity Pressure Visibility Wind Dir Wind Speed Gust Speed Precip Events Conditions
12:56 AM 50.0 °F - 30.9 °F 48% 30.11 in 10.0 mi NW 4.6 mph - N/A   Clear
1:56 AM 48.9 °F - 32.0 °F 52% 30.11 in 10.0 mi Calm Calm - N/A   Clear
2:56 AM 48.0 °F - 35.1 °F 61% 30.11 in 10.0 mi WNW 4.6 mph - N/A   Clear
3:56 AM 48.0 °F - 35.1 °F 61% 30.10 in 10.0 mi Calm Calm - N/A   Overcast
4:56 AM 48.0 °F - 34.0 °F 58% 30.10 in 10.0 mi Calm Calm - N/A   Mostly Cloudy
5:56 AM 46.9 °F - 37.0 °F 68% 30.12 in 10.0 mi Calm Calm - N/A   Overcast
6:56 AM 46.9 °F - 36.0 °F 66% 30.13 in 10.0 mi WNW 3.5 mph - N/A   Overcast
7:56 AM 46.0 °F 43.1 °F 37.9 °F 73% 30.15 in 10.0 mi ESE 5.8 mph - 0.00 in Rain Light Rain
8:56 AM 46.0 °F 44.8 °F 39.9 °F 79% 30.13 in 10.0 mi Variable 3.5 mph - 0.00 in   Overcast
9:56 AM 46.0 °F - 39.0 °F 76% 30.13 in 10.0 mi Calm Calm - N/A   Overcast
10:56 AM 46.0 °F 44.8 °F 39.0 °F 76% 30.13 in 10.0 mi Variable 3.5 mph - N/A   Overcast
11:56 AM 46.9 °F - 39.0 °F 74% 30.10 in 10.0 mi Calm Calm - N/A   Overcast
12:56 PM 48.0 °F - 39.0 °F 71% 30.08 in 10.0 mi NW 4.6 mph - N/A   Overcast
1:56 PM 48.9 °F - 37.9 °F 66% 30.06 in 10.0 mi Calm Calm - N/A   Overcast
2:56 PM 48.9 °F - 39.0 °F 69% 30.04 in 10.0 mi Calm Calm - N/A   Overcast
3:56 PM 48.0 °F - 39.9 °F 74% 30.01 in 10.0 mi South 4.6 mph - N/A   Overcast
4:56 PM 46.9 °F - 42.1 °F 83% 30.00 in 10.0 mi Variable 4.6 mph - N/A   Overcast
5:56 PM 46.9 °F - 43.0 °F 86% 30.01 in 10.0 mi Calm Calm - N/A   Overcast
6:56 PM 46.0 °F - 44.1 °F 93% 30.01 in 10.0 mi Calm Calm - 0.00 in Rain Light Rain
7:56 PM 45.0 °F 42.6 °F 43.0 °F 93% 30.00 in 10.0 mi Variable 4.6 mph - 0.01 in   Overcast
8:56 PM 45.0 °F - 44.1 °F 97% 30.01 in 10.0 mi Calm Calm - N/A   Overcast
9:56 PM 44.1 °F 42.5 °F 43.0 °F 96% 30.01 in 10.0 mi WSW 3.5 mph - N/A   Overcast
10:56 PM 44.1 °F 42.5 °F 44.1 °F 100% 30.01 in 10.0 mi SW 3.5 mph - N/A   Overcast
11:56 PM 45.0 °F - 43.0 °F 93% 30.01 in 10.0 mi Calm Calm - N/A   Overcast